Location: Mesa Vista Observatory
(35.5777°N, 105.6987°W)
Time: 14:47:41
(UTC-06:00)

Hubble Space Telescope - Pass Details

Date: 27 June 2019
Orbit: 536 x 540 km, 28.5° (Epoch: 22 July)

Event Time Altitude Azimuth Distance (km) Brightness Sun altitude
Rises 22:54:04 0° 255° (WSW) 2,672 4.6 -23.4°
Reaches altitude 10° 22:56:31 10° 244° (WSW) 1,781 3.5 -23.6°
Enters shadow 22:57:06 13° 240° (WSW) 1,588 3.2 -23.7°
